This is the latest recevied weather packets stored in our database for station/object KB0BDN-13. If no packets are shown the sender has not sent any weather packets the latest 10 day(s).
| Time | Temp. | Humidity | Pressure | Rain* | Wind** | Luminosity | Snow |
|---|---|---|---|---|---|---|---|
| 1777486908 | 2.22° C | 66% | 1010.8 hPa | 0 mm | - | - | - |
| 1777486008 | 1.67° C | 67% | 1011 hPa | 0 mm | - | - | - |
| 1777485108 | 1.67° C | 70% | 1011 hPa | 0 mm | - | - | - |
| 1777484208 | 1.11° C | 73% | 1011 hPa | 0 mm | - | - | - |
| 1777483308 | 1.11° C | 77% | 1011 hPa | 0 mm | - | - | - |
| 1777482408 | 1.11° C | 79% | 1011.1 hPa | 0 mm | - | - | - |
| 1777481508 | 0.56° C | 84% | 1011.3 hPa | 0.25 mm | - | - | - |
| 1777480608 | 0° C | 85% | 1011.5 hPa | 0.25 mm | - | - | - |
| 1777479708 | 0° C | 86% | 1011.5 hPa | 0.25 mm | - | - | - |
| 1777478808 | -0.56° C | 88% | 1011.5 hPa | 0.25 mm | - | - | - |
| 1777477908 | -0.56° C | 88% | 1011.5 hPa | 0 mm | - | - | - |
| 1777477008 | -0.56° C | 89% | 1011.5 hPa | 0 mm | - | - | - |
| 1777476108 | -0.56° C | 91% | 1011.5 hPa | 0 mm | - | - | - |
| 1777475208 | -0.56° C | 94% | 1011.5 hPa | 0 mm | - | - | - |
| 1777474308 | -0.56° C | 94% | 1011.5 hPa | 0 mm | - | - | - |
| 1777473408 | -0.56° C | 94% | 1011.5 hPa | 0 mm | - | - | - |
| 1777472508 | -0.56° C | 95% | 1011.5 hPa | 0 mm | - | - | - |
| 1777471608 | -0.56° C | 95% | 1011.3 hPa | 0 mm | - | - | - |
| 1777470708 | -0.56° C | 95% | 1011.3 hPa | 0 mm | - | - | - |
| 1777469808 | -0.56° C | 94% | 1011.4 hPa | 0 mm | - | - | - |
| 1777468908 | -0.56° C | 94% | 1011.5 hPa | 0 mm | - | - | - |
| 1777468008 | -0.56° C | 94% | 1011.5 hPa | 0 mm | - | - | - |
| 1777467108 | -0.56° C | 94% | 1011.4 hPa | 0 mm | - | - | - |
| 1777466208 | -0.56° C | 94% | 1011.2 hPa | 0 mm | - | - | - |
| 1777465308 | -0.56° C | 94% | 1011 hPa | 0 mm | - | - | - |
* Rain latest hour (hover to see other rain measurements)
** Current wind speed in m/s (hover to see current wind gust speed)